COSMOS 1275 DEB

Satellite information

Favourite Embed

Satellite Type and Status

DEBRISIN ORBIT

Key statistics

Satellite COSMOS 1275 DEB at a glance.

Uptime

16166

Days in orbit

Revolutions

≈ 14.5

Per day

Orbit

LEO

Low Earth Orbit

Inclination

82.9

Latest

Satellite identification and parameters

Extended collection of information and parameters for COSMOS 1275 DEB.

Object identification

Identified? True

Debris? True

Object name: COSMOS 1275 DEB

International designator: 1981-053MB

Object number (NORAD): 18902

Object ID (CCSDS): 18902

Country: COMMONWEALTH OF INDEPENDENT STATES (CIS)

Current information (Y/N): Y

RCS size: SMALL

Orbital parameters

Period: 99.25 minutes

Inclination: 82.9492 deg

SMA: 7100.886 km

Apoapsis: 735.162 km

Periapsis: 710.34 km

RAAN: 180.6477 deg

Eccentricy: 0.00174782

Argument of periapsis: 56.0046 deg

Mean anomaly: 304.281 deg

Mean motion: 14.50888078 rev/day

Mean motion (dot): 0.00011908 rev/day2

B* drag term: 0.0030054263 1/REarth

Two-line elements (TLE)

Creation date: Sept. 6, 2025, 2:09 a.m.

Reference frame: TEME

Reference center: EARTH

Epoch: Sept. 5, 2025, 7:33 p.m. UTC

TLE line 0: 0 COSMOS 1275 DEB

TLE line 1: 1 18902U 81053MB 25248.81491508 .00011908 00000-0 30054-2 0 9997

TLE line 2: 2 18902 82.9492 180.6477 0017478 56.0046 304.2810 14.50888078623971

Live tracking on map

Real-time ground track for satellite COSMOS 1275 DEB.

In-orbit conjunctions

A list of the most updated potential collisions computed for object COSMOS 1275 DEB.

Target Orbit TCA Probability of collision Miss distance Type
COSMOS 2251 DEB LEO 2025-08-24 05:43:24 0.0003048397 73.0 (m) DEBRIS
SEASAT 1 SSO 2024-12-05 09:13:12 0.0001034492 957.0 (m) PAYLOAD

Associated space launch

Navigation satellite providing location information for the Tsiklon-B navigation system

COSMOS 1275 DEB was lifted into orbit during the mission ‘Kosmos-3M | Parus 27’, on board a Kosmos-3M space rocket.

The launch took place on June 4, 1981, 3:41 p.m. from 132/2.

For more information about the launch, click the button.

Launch to space Kosmos-3M | Parus 27
Kosmos-3M | Parus 27

Agency: N/A

Status: Launch Successful

Launch date: June 4, 1981, 3:41 p.m. UTC

Rocket: Kosmos-3M

Launch pad: 132/2

Location: Plesetsk Cosmodrome, Russian Federation

...

Latest news about this satellite

There are no fresh news available about this satellite. Check back as we update our databases every day.


Newsletter sign-up

Weekly statistics, charts and insights to help you stay on top of the space industry.